CZ-2C R/B (55691 NORAD) Tracking and Keplerian Element Data

This shows tracking and keplerian element data for the satellite.

Feedback or suggestion? Click here.




ElementValue
Catalog55691
NameCZ-2C R/B
Epoch Orbit454
Epoch Day85.20755672
Epoch Year2023
RAAN159.392
Inclination97.5961
Eccentricity0.0066442
Argument of Perigee178.0359
Mean Anonmoly182.115
Mean Motion15.18205429
Decay Rate0.00015461
L11 55691U 23025B 23085.20755672 .00015461 00000+0 71595-3 0 9996
L22 55691 97.5961 159.3920 0066442 178.0359 182.1150 15.18205429 4547



Live tracking and technical data element details for CZ-2C R/B (NORAD 55691). CZ-2C R/B can be tracked NOW for your location showing map with azimuth and elevation plus other details from your city location.







IsCatalogInMostPopularTable: catalog: 55691, numindb: 3
Update: records affected: 1



GetName: 55691 CZ-2C R/B

Hit Count: updated at: Tue, 28 Mar 2023 03:00:42 GMT